SCP
0 0 0 0 0 0 0 0 0 0 0 0 0 0 0 0 0 0 0 0 0 0 0 0 0 0 0 0 0 1 1 1 0 1 1 0 0 0 0 0 0 0 0
0 0 0 0 0 0 0 0 0 0 0 0 0 0 0 0 0 0 0 0 0 0 0 0 0 0 0 0 0 0 0 1 0 1 1 0 0 0 0 0 0 0 0
0 0 0 0 0 0 0 0 0 0 0 0 0 0 0 0 0 0 0 0 0 0 0 0 0 0 0 0 0 0 0 0 0 1 1 0 0 0 0 0 0 0 0
0 0 0 0 0 0 0 0 0 0 0 0 0 0 0 0 0 0 0 0 0 0 0 0 0 0 0 0 0 0 0 0 0 0 0 0 0 0 0 0 0 1 1
0 0 0 0 0 0 0 0 0 0 0 0 0 1 1 0 0 0 0 0 0 0 0 0 0 0 0 0 0 0 0 0 0 0 0 0 0 0 0 0 1 1 1
0 0 0 0 0 0 0 0 0 0 0 1 1 1 1 1 0 0 0 0 0 0 0 0 0 0 0 0 0 0 0 0 0 0 0 0 0 0 0 0 1 1 1
0 0 0 0 0 0 0 0 0 0 1 1 1 1 1 0 0 0 0 0 1 0 0 0 0 0 0 0 0 0 0 0 0 0 0 0 0 0 0 0 0 1 1
0 0 0 0 0 0 0 0 0 0 0 0 0 0 0 0 0 0 0 1 1 1 1 0 0 0 0 0 0 0 0 0 0 0 0 0 0 0 0 0 0 0 0
0 0 0 0 0 0 0 0 0 0 0 0 0 0 0 0 0 0 1 1 1 1 1 1 1 0 0 0 0 0 0 0 0 0 0 0 0 0 0 0 0 0 0
0 0 0 0 0 0 0 0 0 0 0 0 0 0 0 0 0 0 1 1 1 1 1 1 0 0 0 0 0 0 0 0 0 0 0 0 0 0 0 0 0 0 0
0 0 0 0 0 0 0 0 0 0 0 0 0 0 0 0 0 0 0 1 1 1 1 1 0 0 0 0 0 0 0 0 0 0 0 0 0 0 0 0 0 0 0
0 0 0 0 0 0 0 0 0 0 0 0 0 0 0 0 0 0 0 0 0 0 1 1 0 0 0 0 0 0 0 0 0 0 0 0 0 0 0 0 0 0 0
0 0 0 0 0 0 0 0 0 0 0 0 0 0 0 0 0 0 0 0 0 0 0 0 0 0 0 0 0 0 0 0 0 0 0 0 0 0 0 0 0 0 0
0 0 0 0 0 0 0 0 0 0 0 0 0 0 0 0 0 0 0 0 0 0 0 0 0 0 0 0 0 0 0 0 0 1 0 0 0 0 0 0 0 0 0
0 0 0 0 0 0 0 0 0 0 0 0 0 0 0 0 0 0 0 0 0 0 0 0 0 0 0 0 1 1 1 0 0 0 0 0 0 0 0 0 0 0 0
0 0 0 0 0 0 0 0 0 0 0 0 0 0 0 0 0 0 0 0 0 0 0 0 0 0 0 0 0 0 0 0 0 0 0 0 0 0 0 0 0 0 0
0 0 0 0 0 0 0 0 0 0 0 0 0 0 0 0 0 0 0 0 0 0 0 0 0 0 0 0 0 0 0 0 0 0 0 0 0 0 0 0 0 0 0
0 0 0 0 0 0 0 0 0 0 0 0 0 0 0 0 0 0 0 0 0 0 0 0 0 0 0 0 0 0 0 0 0 0 0 0 0 0 0 0 0 0 0
0 0 0 0 0 0 0 0 0 0 0 0 0 0 0 0 0 0 0 0 0 0 0 0 0 0 0 0 0 0 0 0 0 0 0 0 0 0 0 0 0 0 0
0 0 0 0 0 0 0 0 0 0 0 0 0 0 0 0 0 0 0 0 0 0 0 0 0 0 0 0 0 0 0 0 0 0 0 0 0 0 0 0 0 0 0
0 0 0 0 0 0 0 0 0 0 0 0 0 0 0 0 0 0 0 0 0 0 0 0 0 0 0 0 0 0 0 0 0 0 0 0 0 0 0 0 0 0 0
0 0 0 0 0 0 0 0 0 0 0 0 0 0 0 0 0 0 0 0 0 0 0 0 0 0 0 0 0 0 0 0 0 0 0 0 0 0 0 0 0 0 0
0 0 0 0 0 0 0 0 0 0 0 0 0 0 0 0 0 0 0 0 0 0 0 0 0 0 0 0 0 0 0 0 0 0 0 0 0 0 0 0 0 0 0
0 0 0 0 0 0 0 0 0 0 0 0 0 0 0 0 0 0 0 0 0 0 0 0 0 0 0 0 0 0 0 0 0 0 0 0 0 0 0 0 0 0 0
0 0 0 0 0 0 0 0 0 0 0 0 0 0 0 0 0 0 0 0 0 0 0 0 0 0 0 0 0 0 0 0 0 0 0 0 0 0 0 0 0 0 0
0 0 0 0 0 0 0 0 0 0 0 0 0 0 0 0 0 0 0 0 0 0 0 0 0 0 0 0 0 0 0 0 0 0 0 0 0 0 0 0 0 0 0
Wind_Speed
5 4 3 0 3 5 6 6 6 6 7 7 7 7 7 7 6 5 5 5 5 6 6 7 7 7 6 6 6 6 7 7 7 5 3 4 5 6 4 6 7 8 9
3 2 1 4 6 7 7 6 6 6 6 7 7 7 6 6 6 6 6 6 6 5 5 6 7 6 7 6 6 7 7 7 7 8 5 5 7 6 6 6 5 6 7
2 2 2 3 3 3 3 2 3 4 5 6 7 7 7 7 7 7 7 7 6 6 6 6 6 6 7 6 7 7 6 6 7 7 6 4 4 4 5 5 6 6 7
1 2 2 3 3 3 2 1 2 2 4 5 7 7 8 8 8 8 8 7 7 7 6 5 6 6 6 6 6 6 6 6 6 6 6 5 4 3 4 5 5 5 6
7 7 6 5 5 4 4 3 2 2 3 4 5 6 7 7 7 8 8 8 8 8 7 6 5 3 4 4 4 4 4 4 4 4 5 4 4 4 4 3 4 4 5
10 9 8 7 7 7 6 5 5 4 3 2 2 3 4 3 4 4 8 9 9 9 8 6 5 7 7 7 5 4 4 3 3 3 3 4 4 4 4 3 3 3 4
11 10 9 9 9 8 8 8 7 6 6 5 5 3 3 5 6 5 8 9 9 9 8 7 4 4 5 6 8 8 7 5 4 4 3 3 2 2 3 4 4 3 3
11 10 10 9 9 9 9 9 8 7 7 7 7 7 6 8 10 7 5 10 8 8 7 7 7 7 6 4 5 6 5 5 5 6 3 2 1 1 1 2 2 2 3
10 10 9 9 9 9 8 8 7 7 7 6 7 7 6 8 12 11 9 3 3 5 5 6 6 6 6 2 6 5 4 3 4 4 4 3 2 1 2 2 2 2 2
8 8 8 8 8 8 8 7 6 5 6 5 6 6 7 7 12 13 11 2 1 1 2 3 1 2 2 3 7 5 5 2 2 5 5 6 6 6 6 4 2 2 2
6 6 6 7 7 7 6 6 6 6 6 5 6 6 7 8 9 12 12 5 4 2 1 2 2 2 2 4 7 6 2 3 2 1 2 2 2 2 3 3 2 2 2
3 4 5 5 5 5 5 5 6 6 6 6 6 6 5 6 7 8 9 8 8 4 2 2 1 1 3 4 6 2 0 3 3 1 2 2 2 1 1 1 1 1 1
1 3 3 4 4 5 5 5 5 5 5 5 5 6 6 5 5 6 5 4 5 3 2 3 4 4 5 6 4 3 4 4 2 2 2 2 2 2 1 1 0 0 1
2 3 3 4 5 6 4 4 4 5 5 6 6 6 6 5 7 7 6 4 2 2 1 1 2 1 1 1 2 3 3 2 2 2 3 3 2 2 1 1 1 1 0
1 2 3 4 5 5 5 4 4 5 6 5 5 5 6 7 9 11 8 7 6 4 3 1 1 1 2 2 2 2 2 3 3 2 3 3 2 2 1 1 1 2 2
1 2 2 3 3 4 4 5 4 3 4 6 8 8 6 7 10 10 10 12 10 6 2 2 3 3 2 2 2 3 3 2 2 3 3 2 2 1 1 1 1 2 3
1 2 2 2 3 3 4 4 4 4 4 5 8 10 10 11 11 11 10 10 13 10 7 6 6 5 5 4 4 4 4 4 4 4 3 3 3 2 2 2 2 3 3
1 3 2 2 2 3 4 4 4 3 3 4 6 8 8 10 11 12 10 8 9 10 8 7 7 7 6 6 6 5 5 5 4 5 5 4 4 3 3 3 3 4 4
2 2 2 2 2 3 3 4 4 4 4 4 4 5 5 4 6 10 9 8 8 8 7 7 7 7 7 6 6 6 6 5 5 5 5 4 4 3 3 3 3 3 4
3 3 2 2 2 2 2 3 4 4 4 4 5 5 5 5 6 7 7 7 7 7 6 6 6 6 6 6 6 5 5 5 5 5 4 4 3 3 3 4 4 4 4
3 5 4 2 1 1 1 2 3 3 3 4 4 5 7 4 5 6 6 6 6 6 6 6 6 6 6 5 5 5 5 4 4 4 3 3 4 3 3 4 4 4 4
2 3 3 2 1 1 1 2 2 3 3 3 3 3 2 3 4 4 4 5 5 5 5 5 5 5 5 5 5 5 4 4 4 4 4 3 3 3 3 3 4 4 5
2 3 3 3 2 2 2 2 2 2 2 2 2 2 3 4 3 3 4 4 4 4 4 4 4 4 4 4 4 4 4 4 4 4 4 3 3 3 3 4 5 5 5
3 3 3 3 3 3 3 2 2 2 2 1 1 1 2 3 3 3 3 3 3 4 4 4 5 6 7 5 4 5 6 6 5 3 4 3 3 3 3 4 5 6 5
4 4 4 4 4 4 3 3 3 3 3 2 2 1 1 2 2 3 3 3 3 4 5 4 3 4 6 8 8 7 8 8 8 6 3 3 4 5 5 6 5 6 6
5 5 4 4 4 4 4 4 3 3 3 2 2 2 1 1 2 2 2 2 3 3 4 3 4 5 5 6 8 8 7 7 8 8 4 5 6 6 5 6 7 6 7
Wind_Direction
67 74 74 35 255 249 245 243 237 222 204 202 203 206 194 193 198 203 228 219 233 236 235 243 245 241 236 229 226 224 223 225 237 241 233 246 246 249 216 236 241 219 206
35 39 291 246 241 235 231 229 223 214 209 214 202 209 203 206 210 210 217 221 231 242 243 246 250 245 241 235 228 227 225 223 234 245 237 233 245 255 260 251 243 240 244
329 317 277 267 262 250 230 229 234 223 215 219 218 218 215 218 221 222 223 226 228 234 241 248 250 241 239 231 228 230 229 229 230 242 243 226 234 235 253 256 252 247 248
18 21 356 357 356 350 358 328 278 256 240 237 235 234 232 230 232 232 233 231 232 232 233 240 249 245 247 241 235 234 230 229 228 235 242 237 229 214 234 241 242 233 241
54 50 37 31 29 27 25 12 356 320 276 261 254 251 246 246 244 245 240 237 235 231 230 228 231 261 305 287 280 260 235 228 222 226 235 235 222 200 215 225 242 243 243
54 50 42 41 42 39 36 37 39 34 20 360 302 277 267 274 349 302 268 246 239 234 231 226 201 207 212 226 255 285 293 257 229 221 220 226 230 225 222 220 237 245 250
54 52 48 49 49 46 47 48 47 49 48 44 34 20 19 26 357 301 260 260 243 238 234 222 207 206 213 212 196 210 222 226 248 266 242 234 233 220 222 219 226 241 256
52 51 48 49 50 49 48 45 43 46 49 46 41 39 40 31 11 351 292 251 246 240 239 241 225 214 206 233 219 220 218 203 209 236 258 284 331 351 255 239 220 244 267
48 47 46 47 46 45 44 41 35 37 43 46 44 38 35 28 15 2 331 254 242 236 231 240 252 245 123 233 256 245 231 208 189 242 314 340 18 317 281 236 210 231 248
47 47 47 45 42 40 39 36 36 38 39 46 48 38 32 26 19 11 350 341 303 209 215 215 190 298 106 214 249 250 254 238 202 180 203 215 224 209 211 235 236 240 241
43 43 41 40 37 32 29 29 29 36 40 44 49 42 34 25 22 21 8 358 346 304 227 209 141 134 254 238 262 268 304 319 267 215 180 179 194 195 195 209 214 230 243
43 42 38 31 24 20 23 27 30 28 35 39 37 37 30 28 20 17 15 10 344 337 343 343 46 4 284 259 255 276 30 262 256 212 184 182 189 174 163 168 191 213 246
42 43 31 31 35 26 24 29 35 36 34 33 30 25 18 16 19 10 2 356 339 327 342 347 325 301 271 234 216 234 221 219 210 204 185 150 122 107 103 93 79 39 105
18 32 26 24 34 47 45 36 37 36 33 30 23 13 5 9 13 1 351 347 311 272 261 206 213 238 266 32 158 188 201 185 192 183 148 128 131 134 109 49 15 340 295
1 48 33 40 35 44 62 49 39 53 28 9 3 357 1 2 1 348 349 358 354 354 330 301 128 140 140 131 131 130 140 153 156 137 132 133 135 126 107 62 348 325 319
351 48 42 46 47 45 61 101 97 53 40 26 18 3 25 18 358 9 17 18 16 8 13 56 54 59 68 87 108 108 100 99 102 104 104 103 100 90 77 53 342 330 331
306 94 81 51 55 54 48 47 86 127 135 74 44 32 28 21 23 23 24 33 32 29 43 44 40 40 44 49 55 64 63 57 60 69 71 67 59 49 34 24 6 349 343
150 111 109 89 61 57 53 53 52 57 78 84 78 50 27 27 30 25 22 40 45 41 41 40 38 37 39 43 46 51 56 56 54 58 57 52 43 36 27 14 8 2 348
152 137 125 99 90 78 71 68 70 72 66 49 48 68 40 36 53 38 33 49 50 44 41 41 38 37 37 39 41 46 48 47 46 47 44 37 32 26 22 10 5 8 338
126 96 123 138 136 117 98 84 79 80 72 60 45 29 31 40 47 43 42 45 49 48 43 41 39 37 37 37 37 38 44 44 37 34 28 20 15 12 8 359 354 354 359
143 144 174 192 149 118 101 88 91 97 91 74 62 40 3 39 51 49 45 42 39 38 38 39 35 30 30 31 31 34 37 37 28 19 11 0 353 357 359 3 5 5 3
170 165 176 161 153 158 130 119 105 109 111 103 96 98 47 47 54 53 52 45 41 38 33 39 45 32 26 27 25 26 26 24 16 4 353 353 353 358 7 13 11 11 8
217 190 187 176 171 156 201 166 152 136 125 120 104 86 80 71 70 59 47 40 38 39 37 47 55 47 43 43 38 28 19 15 4 351 344 354 5 16 21 23 20 13 14
240 218 211 197 192 199 196 180 176 170 164 148 125 80 78 83 78 74 68 54 46 54 52 52 51 51 49 45 39 38 27 6 351 357 7 19 32 35 35 32 30 26 22
250 227 216 211 202 204 201 193 195 189 185 186 195 195 118 91 84 81 77 69 61 67 67 67 64 55 50 54 50 44 29 16 13 0 52 58 58 52 49 47 47 44 39
247 230 218 210 208 209 210 206 200 195 202 205 202 204 190 113 97 99 96 85 82 83 80 76 66 62 58 58 52 39 30 28 19 356 16 68 64 58 62 68 64 57 56